• In Romania
  • List of Countries
  • For 7 days
  • Water Temperature
  • Satellite Maps
  • Weather Map
  • Weather Widgets
  • user-avatar
    Login

    Hourly Weather Koprivnica

    Today, 14 December, Thursday

    Time Temperature Precipitation Wind Pressure Humidity
    00:00 +1°C° 0 mm 3 mps 745 mmHg 90%
    01:00 +1°C° 0 mm 3 mps 745 mmHg 90%
    02:00 0°C° 0 mm 4 mps 744 mmHg 88%
    03:00 +1°C° 0 mm 4 mps 743 mmHg 87%
    04:00 +2°C° 0 mm 5 mps 742 mmHg 85%
    05:00 +3°C° 0 mm 5 mps 742 mmHg 83%
    06:00 +3°C° 0 mm 5 mps 741 mmHg 81%
    07:00 +5°C° 0 mm 5 mps 741 mmHg 79%
    08:00 +6°C° 0 mm 5 mps 741 mmHg 78%
    09:00 +7°C° 0 mm 5 mps 741 mmHg 77%
    10:00 +7°C° 0 mm 5 mps 741 mmHg 76%
    11:00 +8°C° 0 mm 4 mps 741 mmHg 75%
    12:00 +10°C° 0 mm 4 mps 741 mmHg 74%
    13:00 +10°C° 0 mm 4 mps 741 mmHg 73%
    14:00 +10°C° 0.1 mm 3 mps 741 mmHg 76%
    15:00 +10°C° 0.1 mm 2 mps 741 mmHg 79%
    16:00 +9°C° 0.1 mm 2 mps 741 mmHg 82%
    17:00 +9°C° 0.2 mm 2 mps 741 mmHg 84%
    18:00 +8°C° 0.2 mm 2 mps 741 mmHg 86%
    19:00 +8°C° 0.2 mm 2 mps 741 mmHg 88%
    20:00 +8°C° 0.4 mm 2 mps 741 mmHg 89%
    21:00 +7°C° 0.4 mm 2 mps 741 mmHg 89%
    22:00 +7°C° 0.4 mm 3 mps 740 mmHg 89%
    23:00 +8°C° 0.3 mm 3 mps 740 mmHg 88%

    Tomorrow, 15 December, Friday

    Time Temperature Precipitation Wind Pressure Humidity
    00:00 +8°C° 0.3 mm 3 mps 740 mmHg 87%
    01:00 +8°C° 0.3 mm 3 mps 739 mmHg 86%
    02:00 +8°C° 0 mm 3 mps 739 mmHg 84%
    03:00 +7°C° 0 mm 4 mps 738 mmHg 83%
    04:00 +7°C° 0 mm 4 mps 737 mmHg 81%
    05:00 +8°C° 0 mm 4 mps 737 mmHg 79%
    06:00 +8°C° 0 mm 5 mps 737 mmHg 77%
    07:00 +9°C° 0 mm 5 mps 737 mmHg 75%
    08:00 +9°C° 0.1 mm 5 mps 737 mmHg 75%
    09:00 +10°C° 0.1 mm 5 mps 738 mmHg 74%
    10:00 +11°C° 0.1 mm 4 mps 738 mmHg 74%
    11:00 +11°C° 0.4 mm 4 mps 738 mmHg 71%
    12:00 +10°C° 0.4 mm 4 mps 739 mmHg 68%
    13:00 +10°C° 0.4 mm 3 mps 739 mmHg 65%
    14:00 +9°C° 0.2 mm 3 mps 739 mmHg 66%
    15:00 +8°C° 0.2 mm 3 mps 739 mmHg 66%
    16:00 +7°C° 0.2 mm 3 mps 739 mmHg 66%
    17:00 +5°C° 1.8 mm 3 mps 739 mmHg 68%
    18:00 +5°C° 1.8 mm 4 mps 739 mmHg 69%
    19:00 +4°C° 1.8 mm 4 mps 739 mmHg 71%
    20:00 +4°C° 1 mm 4 mps 739 mmHg 72%
    21:00 +4°C° 1 mm 4 mps 739 mmHg 73%
    22:00 +3°C° 1 mm 3 mps 739 mmHg 74%
    23:00 +3°C° 0.8 mm 3 mps 740 mmHg 77%

    Day after tomorrow, 16 December, Saturday

    Time Temperature Precipitation Wind Pressure Humidity
    00:00 +4°C° 0.8 mm 2 mps 740 mmHg 80%
    01:00 +4°C° 0.8 mm 2 mps 740 mmHg 82%
    02:00 +4°C° 0.3 mm 2 mps 740 mmHg 84%
    03:00 +3°C° 0.3 mm 2 mps 740 mmHg 85%
    04:00 +3°C° 0.3 mm 2 mps 740 mmHg 87%
    05:00 +4°C° 0.1 mm 1 mps 740 mmHg 88%
    06:00 +4°C° 0.1 mm 1 mps 741 mmHg 88%
    07:00 +4°C° 0.1 mm 1 mps 741 mmHg 89%
    08:00 +4°C° 0 mm 1 mps 742 mmHg 87%
    09:00 +5°C° 0 mm 1 mps 742 mmHg 84%
    10:00 +5°C° 0 mm 1 mps 743 mmHg 82%
    11:00 +6°C° 0 mm 1 mps 743 mmHg 79%
    12:00 +6°C° 0 mm 1 mps 743 mmHg 76%
    13:00 +7°C° 0 mm 1 mps 743 mmHg 73%
    14:00 +6°C° 0 mm 1 mps 744 mmHg 76%
    15:00 +6°C° 0 mm 1 mps 744 mmHg 79%
    16:00 +5°C° 0 mm 1 mps 744 mmHg 82%
    17:00 +5°C° 0 mm 1 mps 745 mmHg 83%
    18:00 +5°C° 0 mm 1 mps 745 mmHg 84%
    19:00 +4°C° 0 mm 1 mps 746 mmHg 84%
    20:00 +4°C° 0 mm 1 mps 747 mmHg 84%
    21:00 +4°C° 0 mm 1 mps 747 mmHg 84%
    22:00 +3°C° 0 mm 1 mps 747 mmHg 83%
    23:00 +2°C° 0 mm 2 mps 748 mmHg 84%

    17 December, Sunday

    Time Temperature Precipitation Wind Pressure Humidity
    00:00 +2°C° 0 mm 2 mps 748 mmHg 84%
    01:00 +1°C° 0 mm 2 mps 748 mmHg 84%
    02:00 +1°C° 0 mm 2 mps 749 mmHg 85%
    03:00 +1°C° 0 mm 2 mps 749 mmHg 85%
    04:00 -1°C° 0 mm 2 mps 750 mmHg 86%
    05:00 -1°C° 0 mm 2 mps 750 mmHg 86%
    06:00 -1°C° 0 mm 2 mps 751 mmHg 85%
    07:00 +1°C° 0 mm 1 mps 751 mmHg 85%
    08:00 +1°C° 0 mm 2 mps 752 mmHg 81%
    09:00 +1°C° 0 mm 2 mps 752 mmHg 76%
    10:00 +2°C° 0 mm 2 mps 753 mmHg 72%
    11:00 +3°C° 0 mm 2 mps 753 mmHg 69%
    12:00 +4°C° 0 mm 2 mps 753 mmHg 66%
    13:00 +4°C° 0 mm 2 mps 753 mmHg 63%
    14:00 +4°C° 0 mm 2 mps 753 mmHg 67%
    15:00 +4°C° 0 mm 1 mps 753 mmHg 71%
    16:00 +3°C° 0 mm 1 mps 754 mmHg 75%
    17:00 +3°C° 0 mm 1 mps 754 mmHg 77%
    18:00 +2°C° 0 mm 1 mps 755 mmHg 79%
    19:00 +2°C° 0 mm 1 mps 755 mmHg 81%
    20:00 +2°C° 0 mm 1 mps 756 mmHg 81%
    21:00 +2°C° 0 mm 1 mps 756 mmHg 81%
    22:00 +2°C° 0 mm 1 mps 757 mmHg 81%
    23:00 +1°C° 0 mm 1 mps 757 mmHg 82%

    18 December, Monday

    Time Temperature Precipitation Wind Pressure Humidity
    00:00 +1°C° 0 mm 1 mps 757 mmHg 82%
    01:00 +1°C° 0 mm 1 mps 757 mmHg 82%
    02:00 +1°C° 0 mm 1 mps 757 mmHg 82%
    03:00 +1°C° 0 mm 1 mps 757 mmHg 81%
    04:00 +1°C° 0 mm 1 mps 757 mmHg 81%
    05:00 0°C° 0 mm 1 mps 757 mmHg 81%
    06:00 0°C° 0 mm 1 mps 757 mmHg 81%
    07:00 0°C° 0 mm 1 mps 757 mmHg 80%
    08:00 -1°C° 0 mm 2 mps 757 mmHg 77%
    09:00 +1°C° 0 mm 2 mps 757 mmHg 74%
    10:00 +1°C° 0 mm 3 mps 757 mmHg 70%
    11:00 +1°C° 0 mm 3 mps 756 mmHg 66%
    12:00 +1°C° 0 mm 4 mps 755 mmHg 62%
    13:00 +3°C° 0 mm 4 mps 754 mmHg 58%
    14:00 +3°C° 0 mm 4 mps 753 mmHg 61%
    15:00 +2°C° 0 mm 3 mps 753 mmHg 64%
    16:00 +2°C° 0 mm 3 mps 752 mmHg 68%
    17:00 +2°C° 0.2 mm 3 mps 752 mmHg 71%
    18:00 +3°C° 0.2 mm 2 mps 752 mmHg 74%
    19:00 +2°C° 0.2 mm 2 mps 752 mmHg 77%
    20:00 +2°C° 0.2 mm 2 mps 752 mmHg 79%
    21:00 +2°C° 0.2 mm 2 mps 753 mmHg 81%
    22:00 +2°C° 0.2 mm 2 mps 753 mmHg 83%
    23:00 +3°C° 0.1 mm 1 mps 753 mmHg 84%

    19 December, Tuesday

    Time Temperature Precipitation Wind Pressure Humidity
    00:00 +3°C° 0.1 mm 1 mps 753 mmHg 84%
    01:00 +2°C° 0.1 mm 1 mps 754 mmHg 85%
    02:00 +2°C° 0.1 mm 1 mps 754 mmHg 85%
    03:00 +2°C° 0.1 mm 1 mps 754 mmHg 85%
    04:00 +2°C° 0.1 mm 1 mps 755 mmHg 85%
    05:00 +2°C° 0.1 mm 1 mps 755 mmHg 85%
    06:00 +2°C° 0.1 mm 1 mps 756 mmHg 84%
    07:00 +2°C° 0.1 mm 1 mps 756 mmHg 84%
    08:00 +3°C° 0.1 mm 1 mps 757 mmHg 84%
    09:00 +3°C° 0.1 mm 1 mps 757 mmHg 83%
    10:00 +4°C° 0.1 mm 1 mps 758 mmHg 82%
    11:00 +4°C° 0.2 mm 1 mps 758 mmHg 81%
    12:00 +5°C° 0.2 mm 1 mps 758 mmHg 81%
    13:00 +4°C° 0.2 mm 2 mps 758 mmHg 81%
    14:00 +4°C° 0.1 mm 2 mps 758 mmHg 83%
    15:00 +3°C° 0.1 mm 2 mps 758 mmHg 86%
    16:00 +3°C° 0.1 mm 2 mps 758 mmHg 88%
    17:00 +1°C° 0 mm 3 mps 759 mmHg 89%
    18:00 +1°C° 0 mm 3 mps 759 mmHg 89%
    19:00 0°C° 0 mm 3 mps 760 mmHg 90%
    20:00 0°C° 0 mm 3 mps 760 mmHg 90%
    21:00 0°C° 0 mm 3 mps 761 mmHg 91%
    22:00 0°C° 0 mm 3 mps 761 mmHg 91%
    23:00 -1°C° 0 mm 3 mps 762 mmHg 90%
    Show more